Regional Weather Roundup
Issued by NWS

Home | Current Version | Previous Version | Graphics & Text | Print | Product List | Glossary On
Versions: 1 2 3 4 5 6 7 8 9 10 11 12 13 14 15 16 17 18 19 20 21 22 23 24 25 26 27 28 29 30 31 32 33 34 35 36 37 38 39 40 41 42 43 44 45 46 47 48 49
000
ASUS45 KCYS 251210
RWRWY

WYOMING REGIONAL WEATHER ROUNDUP
NATIONAL WEATHER SERVICE CHEYENNE WY
500 AM MST SUN JAN 25 2015

NOTE:  "FAIR" INDICATES FEW OR NO CLOUDS BELOW 12,000 FEET
WITH NO SIGNIFICANT WEATHER AND/OR OBSTRUCTIONS TO VISIBILITY.

WYZ001-251300-
YELLOWSTONE NATIONAL PARK

CITY           SKY/WX    TMP DP  RH WIND       PRES   REMARKS
LK YELLOWSTONE   N/A     23  20  88 CALM      30.36R
6HR MIN TEMP:  22; 6HR MAX TEMP:  23; 6HR PCP:  0.01;

W YELLOWSTONE  NOT AVBL

$$
WYZ002>013-054>058-071-098>099-251300-
NORTHERN WYOMING

CITY           SKY/WX    TMP DP  RH WIND       PRES   REMARKS
JACKSON        CLOUDY    25  23  93 N9        30.36F WCI  15
CODY           FAIR      46  28  49 W15G23    30.12F
GREYBULL       CLOUDY    21  20  96 S5        30.17S WCI  15
6HR MIN TEMP:  13; 6HR MAX TEMP:  22;

WORLAND        CLOUDY    22  19  89 SW12      30.16S WCI  10
6HR MIN TEMP:  11; 6HR MAX TEMP:  25;

SHERIDAN       CLOUDY    34  30  85 S7        30.08F WCI  28
6HR MIN TEMP:  28; 6HR MAX TEMP:  35;

BUFFALO        MOCLDY    35  27  72 S6        30.10F WCI  30
6HR MIN TEMP:  31; 6HR MAX TEMP:  37;

GILLETTE       MOCLDY    33  29  85 W9        30.08F WCI  25
6HR MIN TEMP:  28; 6HR MAX TEMP:  34;

HULETT           N/A    N/A N/A N/A MISG        N/A
NEWCASTLE      FAIR      32  23  69 N17       30.06F WCI  21

$$
WYZ014>020-022>026-101>103-251300-
CENTRAL WYOMING

CITY           SKY/WX    TMP DP  RH WIND       PRES   REMARKS
BIG PINEY      FAIR      23  20  88 NW12      30.31F WCI  12
6HR MIN TEMP:  17; 6HR MAX TEMP:  30;

PINEDALE       FAIR      32  27  80 NW21      30.31S WCI  20
DUBOIS         CLOUDY    36  28  75 W24G35    30.25F WCI  24
LANDER         FAIR      36  22  56 CALM      30.15F
6HR MIN TEMP:  28; 6HR MAX TEMP:  36;

RIVERTON       FAIR      25  20  81 S3        30.16S
6HR MIN TEMP:  24; 6HR MAX TEMP:  36;

CASPER         CLOUDY    34  24  67 SW15      30.14S WCI  24
6HR MIN TEMP:  26; 6HR MAX TEMP:  34;

DOUGLAS        CLOUDY    30  27  88 W5        30.13S WCI  25
6HR MIN TEMP:  25; 6HR MAX TEMP:  36;


$$
WYZ021-027>030-104>119-251300-
SOUTHERN WYOMING

CITY           SKY/WX    TMP DP  RH WIND       PRES   REMARKS
EVANSTON       FAIR      30  27  88 S8        30.42R WCI  22
6HR MIN TEMP:  26; 6HR MAX TEMP:  31;

KEMMERER       CLOUDY    32  30  93 W16       30.38S WCI  21
FORT BRIDGER   FAIR      31  30  96 W22G29    30.40R WCI  19
ROCK SPRINGS   FAIR      31  26  82 W24       30.32R WCI  17
6HR MIN TEMP:  31; 6HR MAX TEMP:  33;

DIXON          CLOUDY    28  24  84 CALM      30.35S
RAWLINS        MOCLDY    30  26  85 W18G24    30.24S WCI  18
6HR MIN TEMP:  27; 6HR MAX TEMP:  30;

SARATOGA       FAIR      32  28  86 W18G25    30.26S WCI  20
LARAMIE        CLOUDY    26  19  74 W9        30.17R WCI  17
6HR MIN TEMP:  23; 6HR MAX TEMP:  33;

CHEYENNE       FAIR      35  23  61 NW12      30.12R WCI  27
6HR MIN TEMP:  34; 6HR MAX TEMP:  39;

TORRINGTON     FAIR      30  25  81 W6        30.12S WCI  24
6HR MIN TEMP:  30; 6HR MAX TEMP:  39;

PINE BLUFFS    FAIR      32  28  86 NW9       30.12S WCI  24

$$



USA.gov is the U.S. government's official web portal to all federal, state and local government web resources and services.